[[{"header":{"parameterUnit":"m.s-1","parameterCategory":1,"la1":30.2991,"la2":30.254,"lo1":-89.0895,"lo2":-89.0444,"dy":0.0017,"dx":0.0017,"nx":28,"ny":28,"refTime":"2025-07-15T09:00:00:Z","depth":0,"parameterNumber":2,"parameterNumberName":"U-component_of_WINDS"},"data":[0,0,0,0,0,0,0,0,0,0,0,0,0,0,0,0,0,0,0,0,0,0,0,0,0,0,0,0,0,0,0,0,0,0,0,0,0,0,0,0,0,0,0,0,0,0,0,0,0,0,0,0,0,0,0,0,0,0,-0.3852,-0.3853,0,-0.3886,-0.3886,-0.3887,-0.3918,-0.3918,-0.3918,-0.3919,-0.3953,-0.3953,-0.3954,0,0,0,0,0,0,0,0,0,0,0,0,0,-0.3815,-0.3816,-0.3852,-0.3853,-0.3853,-0.3886,-0.3886,-0.3887,-0.3918,-0.3918,-0.3919,-0.3919,-0.3953,-0.3953,-0.3954,0,0,0,0,0,0,0,0,0,0,0,0,0,-0.3838,-0.3816,-0.3852,-0.3872,-0.3875,-0.3886,-0.3886,-0.3887,-0.3918,-0.3918,-0.3919,-0.3919,-0.3953,-0.3953,-0.3954,-0.3948,0,0,-0.3957,-0.3957,0,0,0,0,0,0,0,0,-0.3837,-0.384,-0.3869,-0.3871,-0.3873,-0.3898,-0.3886,-0.3907,-0.3917,-0.3901,-0.3919,-0.392,-0.3934,-0.3937,-0.3942,-0.3949,-0.3951,-0.3957,-0.3957,-0.3958,-0.3958,0,0,0,0,0,0,0,-0.3835,-0.3838,-0.3865,-0.3869,-0.3872,-0.388,-0.3884,-0.389,-0.3914,-0.3903,-0.3905,-0.3909,-0.3936,-0.3941,-0.3943,-0.3951,-0.3957,-0.3957,-0.3958,-0.3958,-0.3957,-0.3956,0,0,0,0,0,0,-0.3831,-0.3837,-0.3864,-0.3866,-0.3856,-0.388,-0.3885,-0.389,-0.3914,-0.3918,-0.3908,-0.391,-0.3939,-0.3942,-0.3944,-0.3939,-0.3958,-0.3958,-0.3959,-0.3957,-0.3956,-0.3956,0,0,0,0,0,0,-0.383,-0.3833,-0.3863,-0.3852,-0.3857,-0.388,-0.3886,-0.389,-0.3895,-0.3918,-0.3923,-0.3909,-0.394,-0.3943,-0.3947,-0.394,-0.3959,-0.3959,-0.3958,-0.3957,-0.3956,-0.3928,0,0,0,0,0,0,-0.3828,-0.3832,-0.383,-0.3852,-0.3857,-0.3865,-0.3885,-0.389,-0.3897,-0.3899,-0.392,-0.3924,-0.394,-0.3945,-0.3948,-0.3942,-0.396,-0.3958,-0.3957,-0.3956,-0.3929,-0.3926,-0.3923,0,0,0,0,0,-0.3827,-0.382,-0.3829,-0.3833,-0.3855,-0.3865,-0.3868,-0.3886,-0.3896,-0.3894,-0.3909,-0.3923,-0.3941,-0.3946,-0.3948,-0.3943,-0.3959,-0.3958,-0.3957,-0.3931,-0.3926,-0.3923,0,0,0,0,0,0,-0.3796,-0.3823,-0.3834,-0.3834,-0.3847,-0.387,-0.3868,-0.3881,-0.3891,-0.3894,-0.3917,-0.3921,-0.3923,-0.3933,-0.3938,-0.3938,-0.3952,-0.3951,-0.3931,-0.3928,-0.3925,-0.3922,-0.3961,0,0,0,0,0,-0.3789,-0.3795,-0.3818,-0.3816,-0.3822,-0.3844,-0.3849,-0.3862,-0.3876,-0.3882,-0.3897,-0.391,-0.3919,-0.3924,-0.3933,-0.3931,-0.3936,-0.3929,-0.3925,-0.3923,-0.3922,-0.3923,-0.392,-0.3952,-0.3952,-0.3952,0,0,-0.3775,-0.3791,-0.3793,-0.381,-0.3822,-0.3828,-0.3848,-0.3853,-0.3857,-0.3883,-0.3887,-0.3899,-0.3915,-0.3917,-0.3918,-0.3925,-0.3914,-0.3921,-0.3919,-0.392,-0.3921,-0.3918,-0.3915,-0.3951,-0.3951,-0.3951,0,0,-0.3752,-0.3764,-0.3764,-0.3776,-0.3793,-0.3808,-0.3808,-0.3829,-0.3838,-0.3843,-0.3862,-0.3868,-0.3882,-0.3893,-0.3901,-0.3883,-0.3898,-0.3886,-0.387,-0.387,-0.3868,-0.3865,-0.386,-0.3857,-0.3885,-0.3885,-0.3885,0,-0.3732,-0.3742,-0.3762,-0.3766,-0.3774,-0.3798,-0.3798,-0.3808,-0.3827,-0.3832,-0.384,-0.3859,-0.3871,-0.3876,-0.3872,-0.3877,-0.3878,-0.3883,-0.3866,-0.3864,-0.3863,-0.3858,-0.3855,-0.3883,-0.3883,-0.3884,-0.3884,0,-0.3717,-0.3723,-0.3721,-0.3739,-0.3746,-0.3748,-0.377,-0.3775,-0.3788,-0.3802,-0.3808,-0.3824,-0.3837,-0.3839,-0.3852,-0.3846,-0.385,-0.3862,-0.3876,-0.3858,-0.3853,-0.3851,-0.3881,-0.3882,-0.3882,-0.3882,0,0,-0.3674,-0.3705,-0.3704,-0.3713,-0.3735,-0.374,-0.3743,-0.3757,-0.3761,-0.3773,-0.3777,-0.3789,-0.3801,-0.3809,-0.3824,-0.3824,-0.381,-0.3836,-0.3837,-0.3831,-0.3805,-0.3796,-0.3794,-0.382,-0.382,-0.3819,-0.3804,0,-0.3655,-0.3663,-0.3682,-0.3684,-0.369,-0.3713,-0.3717,-0.373,-0.3744,-0.3751,-0.3766,-0.3775,-0.3789,-0.3794,-0.3796,-0.3811,-0.3805,-0.3813,-0.3824,-0.3824,-0.3819,-0.3791,-0.3782,-0.3767,-0.3803,-0.3802,-0.3802,0,-0.3633,-0.3645,-0.3648,-0.367,-0.3673,-0.3676,-0.369,-0.3697,-0.3713,-0.3723,-0.3733,-0.3749,-0.3755,-0.3768,-0.3777,-0.3782,-0.3787,-0.3796,-0.3796,-0.3798,-0.3812,-0.3793,-0.3762,-0.376,-0.38,-0.38,-0.38,0,-0.3602,-0.3619,-0.3623,-0.363,-0.3656,-0.3657,-0.3668,-0.3685,-0.3692,-0.3705,-0.371,-0.3723,-0.373,-0.374,-0.3759,-0.3767,-0.3766,-0.3781,-0.3775,-0.3774,-0.3773,-0.3773,-0.3743,-0.3776,-0.3777,-0.3777,-0.3777,0,-0.3579,-0.3579,-0.361,-0.3612,-0.3614,-0.3636,-0.3638,-0.3651,-0.3666,-0.3672,-0.3693,-0.3698,-0.3723,-0.3731,-0.3747,-0.3752,-0.3755,-0.3763,-0.3767,-0.3761,-0.376,-0.3765,-0.3767,-0.3776,-0.3776,-0.3776,-0.3776,0,-0.3544,-0.3564,-0.357,-0.3595,-0.3601,-0.3601,-0.3622,-0.3626,-0.3641,-0.3648,-0.3651,-0.3675,-0.3686,-0.3706,-0.3723,-0.3733,-0.3735,-0.3742,-0.3729,-0.3732,-0.3725,-0.3725,-0.3697,-0.3695,-0.373,-0.3729,-0.3729,0,-0.3528,-0.3529,-0.3554,-0.3559,-0.3569,-0.3578,-0.3585,-0.3608,-0.3615,-0.3635,-0.3636,-0.3649,-0.366,-0.3676,-0.3695,-0.3708,-0.3716,-0.3705,-0.3718,-0.3712,-0.3716,-0.3716,-0.3716,-0.3702,-0.3702,-0.3701,-0.3701,0,-0.3496,-0.3507,-0.3517,-0.3531,-0.3539,-0.3551,-0.3564,-0.3568,-0.3594,-0.3601,-0.3612,-0.3621,-0.3638,-0.3651,-0.3667,-0.3679,-0.3694,-0.3697,-0.3696,-0.369,-0.3683,-0.3687,-0.3722,-0.3697,-0.3698,-0.3698,-0.3698,-0.3698,-0.347,-0.3473,-0.3491,-0.3502,-0.3515,-0.3527,-0.3531,-0.3548,-0.3558,-0.3574,-0.3587,-0.3597,-0.3615,-0.3638,-0.3649,-0.3658,-0.3666,-0.3664,-0.3664,-0.3664,-0.3661,-0.3682,-0.3661,-0.3661,-0.3661,-0.3662,-0.3662,0,-0.344,-0.3453,-0.3463,-0.3482,-0.349,-0.3505,-0.3521,-0.3527,-0.3536,-0.3551,-0.3562,-0.3576,-0.3589,-0.3609,-0.3623,-0.3627,-0.3635,-0.363,-0.363,-0.3632,-0.3654,-0.3653,-0.3623,-0.3623,-0.3623,-0.3623,-0.3624,-0.3624,-0.3426,-0.3431,-0.3444,-0.3456,-0.3469,-0.348,-0.3488,-0.3499,-0.3512,-0.3526,-0.3537,-0.355,-0.3568,-0.3584,-0.3596,-0.3602,-0.3607,-0.36,-0.3608,-0.3627,-0.3631,-0.3634,-0.3634,-0.36,-0.36,-0.3586,-0.3586,-0.3586]},{"header":{"parameterUnit":"m.s-1","parameterCategory":1,"la1":30.2991,"la2":30.254,"lo1":-89.0895,"lo2":-89.0444,"dy":0.0017,"dx":0.0017,"nx":28,"ny":28,"refTime":"2025-07-15T09:00:00:Z","depth":0,"parameterNumber":3,"parameterNumberName":"V-component_of_WINDS"},"data":[0,0,0,0,0,0,0,0,0,0,0,0,0,0,0,0,0,0,0,0,0,0,0,0,0,0,0,0,0,0,0,0,0,0,0,0,0,0,0,0,0,0,0,0,0,0,0,0,0,0,0,0,0,0,0,0,0,0,-3.4709,-3.4709,0,-3.4636,-3.4635,-3.4635,-3.4565,-3.4565,-3.4564,-3.4563,-3.4484,-3.4483,-3.4481,0,0,0,0,0,0,0,0,0,0,0,0,0,-3.4789,-3.4787,-3.4709,-3.4709,-3.4708,-3.4636,-3.4635,-3.4634,-3.4566,-3.4565,-3.4564,-3.4563,-3.4484,-3.4483,-3.4481,0,0,0,0,0,0,0,0,0,0,0,0,0,-3.4739,-3.4787,-3.471,-3.4665,-3.466,-3.4637,-3.4635,-3.4634,-3.4566,-3.4565,-3.4563,-3.4562,-3.4485,-3.4483,-3.4481,-3.4494,0,0,-3.4475,-3.4474,0,0,0,0,0,0,0,0,-3.4742,-3.4736,-3.4672,-3.4668,-3.4663,-3.4609,-3.4634,-3.4587,-3.4566,-3.4602,-3.4563,-3.4561,-3.4526,-3.4521,-3.451,-3.4491,-3.4487,-3.4475,-3.4474,-3.4473,-3.4472,0,0,0,0,0,0,0,-3.4745,-3.4739,-3.468,-3.4672,-3.4666,-3.4648,-3.464,-3.4625,-3.4572,-3.4598,-3.4593,-3.4586,-3.4523,-3.4512,-3.4507,-3.4486,-3.4475,-3.4473,-3.4472,-3.4471,-3.4479,-3.448,0,0,0,0,0,0,-3.4756,-3.4742,-3.4683,-3.4678,-3.47,-3.4648,-3.4638,-3.4627,-3.4572,-3.4562,-3.4587,-3.4583,-3.4516,-3.451,-3.4504,-3.4519,-3.4473,-3.4471,-3.447,-3.4478,-3.4479,-3.4481,0,0,0,0,0,0,-3.4758,-3.4751,-3.4686,-3.4709,-3.4699,-3.4648,-3.4636,-3.4627,-3.4615,-3.4563,-3.4553,-3.4585,-3.4514,-3.4507,-3.4499,-3.4515,-3.447,-3.4468,-3.4476,-3.4478,-3.448,-3.4548,0,0,0,0,0,0,-3.476,-3.4752,-3.4757,-3.4709,-3.4698,-3.4682,-3.4637,-3.4626,-3.4612,-3.4606,-3.4559,-3.455,-3.4513,-3.4502,-3.4497,-3.4512,-3.4467,-3.4474,-3.4477,-3.448,-3.4544,-3.4552,-3.4559,0,0,0,0,0,-3.4763,-3.4777,-3.4757,-3.475,-3.4703,-3.4683,-3.4676,-3.4635,-3.4614,-3.4618,-3.4586,-3.4551,-3.4515,-3.4502,-3.4495,-3.451,-3.4473,-3.4476,-3.4479,-3.454,-3.455,-3.4558,0,0,0,0,0,0,-3.4824,-3.4769,-3.4747,-3.4746,-3.472,-3.4671,-3.4675,-3.4646,-3.4624,-3.4619,-3.4568,-3.4557,-3.4556,-3.4532,-3.4518,-3.4522,-3.4489,-3.4491,-3.4538,-3.4547,-3.4554,-3.456,-3.4465,0,0,0,0,0,-3.4838,-3.4828,-3.4779,-3.4783,-3.4771,-3.4726,-3.4715,-3.4687,-3.4657,-3.4645,-3.4611,-3.4583,-3.4566,-3.4555,-3.4535,-3.454,-3.453,-3.4548,-3.4555,-3.4562,-3.4564,-3.4568,-3.4576,-3.4491,-3.4491,-3.4491,0,0,-3.4866,-3.4834,-3.483,-3.4795,-3.4771,-3.4761,-3.4717,-3.4707,-3.4699,-3.4643,-3.4634,-3.4609,-3.4574,-3.4574,-3.4572,-3.4554,-3.4586,-3.4566,-3.4571,-3.457,-3.4572,-3.458,-3.4587,-3.4493,-3.4493,-3.4493,0,0,-3.4911,-3.4886,-3.4887,-3.4866,-3.4832,-3.4802,-3.4803,-3.476,-3.4742,-3.4733,-3.4692,-3.4682,-3.4652,-3.463,-3.4615,-3.4658,-3.4626,-3.4653,-3.4692,-3.4697,-3.4703,-3.4709,-3.4727,-3.4733,-3.4655,-3.4655,-3.4656,0,-3.4948,-3.4933,-3.4891,-3.4886,-3.4872,-3.4824,-3.4826,-3.4807,-3.4768,-3.476,-3.4741,-3.4706,-3.4678,-3.4674,-3.4685,-3.4674,-3.4674,-3.4657,-3.4706,-3.4711,-3.4716,-3.4732,-3.4739,-3.4659,-3.4659,-3.4658,-3.4658,0,-3.4982,-3.4972,-3.4978,-3.4945,-3.4932,-3.493,-3.4889,-3.4881,-3.4855,-3.4828,-3.4821,-3.4788,-3.4763,-3.4759,-3.4731,-3.4752,-3.4743,-3.4716,-3.4681,-3.4728,-3.4743,-3.4748,-3.4664,-3.4663,-3.4662,-3.4661,0,0,-3.506,-3.5009,-3.5011,-3.4998,-3.4959,-3.495,-3.4948,-3.4925,-3.4921,-3.4897,-3.4894,-3.4873,-3.4849,-3.4832,-3.4802,-3.4806,-3.4846,-3.4779,-3.4778,-3.4794,-3.487,-3.4891,-3.4899,-3.4826,-3.4827,-3.4827,-3.4874,0,-3.51,-3.5094,-3.5059,-3.5062,-3.5054,-3.501,-3.5008,-3.4985,-3.4961,-3.495,-3.4922,-3.4909,-3.4878,-3.4868,-3.487,-3.4841,-3.4861,-3.4837,-3.4823,-3.4823,-3.4834,-3.4906,-3.4927,-3.4972,-3.4879,-3.488,-3.488,0,-3.5144,-3.5127,-3.5131,-3.5097,-3.5092,-3.5091,-3.507,-3.506,-3.5034,-3.5016,-3.5001,-3.4968,-3.4964,-3.4933,-3.4928,-3.4913,-3.4905,-3.4891,-3.4892,-3.4889,-3.4855,-3.4906,-3.4985,-3.4993,-3.4888,-3.4888,-3.4887,0,-3.5204,-3.5181,-3.5181,-3.5171,-3.513,-3.5131,-3.5114,-3.5086,-3.5077,-3.5059,-3.5052,-3.5033,-3.5023,-3.5009,-3.4974,-3.4954,-3.4974,-3.4939,-3.496,-3.4961,-3.4965,-3.4965,-3.5045,-3.4959,-3.4959,-3.4959,-3.4959,0,-3.5252,-3.5256,-3.5208,-3.5208,-3.5213,-3.5174,-3.5179,-3.5158,-3.5135,-3.5131,-3.5091,-3.5088,-3.5041,-3.5033,-3.5005,-3.5007,-3.5002,-3.4988,-3.4981,-3.4992,-3.4994,-3.4986,-3.4983,-3.4961,-3.496,-3.496,-3.496,0,-3.5318,-3.5286,-3.5284,-3.5248,-3.5239,-3.5244,-3.5213,-3.5212,-3.5187,-3.5183,-3.518,-3.514,-3.5129,-3.5093,-3.5072,-3.5053,-3.5064,-3.5049,-3.5074,-3.5069,-3.5093,-3.5092,-3.5171,-3.518,-3.5088,-3.5089,-3.509,0,-3.5351,-3.5354,-3.532,-3.5316,-3.5301,-3.5294,-3.5285,-3.5247,-3.524,-3.5213,-3.5216,-3.5203,-3.519,-3.5175,-3.5144,-3.5129,-3.5114,-3.5144,-3.5112,-3.5125,-3.5117,-3.5118,-3.5119,-3.515,-3.5151,-3.5152,-3.5153,0,-3.5414,-3.5399,-3.5389,-3.5375,-3.5367,-3.5353,-3.5336,-3.5335,-3.5293,-3.5287,-3.5277,-3.5267,-3.5249,-3.5236,-3.5218,-3.52,-3.517,-3.5164,-3.5168,-3.518,-3.5195,-3.5189,-3.5094,-3.5162,-3.5161,-3.516,-3.516,-3.516,-3.5465,-3.5468,-3.5445,-3.5436,-3.5421,-3.5408,-3.5407,-3.5384,-3.5376,-3.5359,-3.5337,-3.533,-3.5308,-3.5279,-3.5265,-3.5259,-3.5243,-3.5248,-3.525,-3.5252,-3.5259,-3.5196,-3.5255,-3.5255,-3.5255,-3.5255,-3.5254,0,-3.5528,-3.5512,-3.5505,-3.5486,-3.5479,-3.5455,-3.5437,-3.5433,-3.5428,-3.541,-3.54,-3.5391,-3.538,-3.5351,-3.5337,-3.5339,-3.5326,-3.5337,-3.5337,-3.5334,-3.5273,-3.5272,-3.5348,-3.5348,-3.5348,-3.5348,-3.5348,-3.5348,-3.5559,-3.5563,-3.5547,-3.5544,-3.5528,-3.5523,-3.5515,-3.5504,-3.549,-3.5481,-3.5473,-3.5455,-3.5433,-3.5419,-3.5409,-3.5401,-3.5398,-3.5415,-3.5402,-3.5346,-3.5337,-3.5329,-3.5327,-3.5414,-3.5414,-3.5463,-3.5464,-3.5464]}]]